Time,TemperatureF,DewpointF,PressureIn,WindDirection,WindDirectionDegrees,WindSpeedMPH,WindSpeedGustMPH,Humidity,HourlyPrecipIn,Conditions,Clouds,dailyrainin,SoftwareType,DateUTC
2013-01-31 00:01:00,44.0,34.0,29.75,SW,221,6.0,13.0,69,0.00,,,0.00,,2013-01-31 00:01:00,
2013-01-31 00:11:00,44.0,34.0,29.75,SW,221,6.0,13.0,69,0.00,,,0.00,,2013-01-31 00:11:00,
2013-01-31 00:21:00,44.0,34.0,29.75,SW,221,6.0,13.0,69,0.00,,,0.00,,2013-01-31 00:21:00,
2013-01-31 00:53:00,44.0,36.0,29.72,SW,218,3.0,6.0,72,0.00,,,0.00,,2013-01-31 00:53:00,
2013-01-31 01:02:00,45.0,36.0,29.72,SSW,194,5.0,9.0,71,0.00,,,0.00,,2013-01-31 01:02:00,
2013-01-31 01:11:00,45.0,36.0,29.72,SSW,194,5.0,9.0,71,0.00,,,0.00,,2013-01-31 01:11:00,
2013-01-31 01:21:00,45.0,36.0,29.69,South,186,5.0,8.0,70,0.00,,,0.00,,2013-01-31 01:21:00,
2013-01-31 01:31:00,45.0,36.0,29.69,SE,136,2.0,7.0,70,0.00,,,0.00,,2013-01-31 01:31:00,
2013-01-31 01:41:00,45.0,36.0,29.69,SE,136,2.0,7.0,70,0.00,,,0.00,,2013-01-31 01:41:00,
2013-01-31 01:52:00,45.0,35.0,29.69,East,94,2.0,8.0,69,0.00,,,0.00,,2013-01-31 01:52:00,
2013-01-31 02:01:00,45.0,35.0,29.63,SE,136,5.0,9.0,69,0.00,,,0.00,,2013-01-31 02:01:00,
2013-01-31 02:11:00,45.0,35.0,29.63,SE,136,5.0,9.0,69,0.00,,,0.00,,2013-01-31 02:11:00,
2013-01-31 02:21:00,45.0,35.0,29.63,SE,136,5.0,9.0,69,0.00,,,0.00,,2013-01-31 02:21:00,
2013-01-31 02:31:00,45.0,35.0,29.63,SE,136,4.0,10.0,69,0.00,,,0.00,,2013-01-31 02:31:00,
2013-01-31 02:41:00,45.0,35.0,29.63,SE,136,4.0,10.0,69,0.00,,,0.00,,2013-01-31 02:41:00,
2013-01-31 02:52:00,45.0,35.0,29.63,SE,136,4.0,10.0,69,0.00,,,0.00,,2013-01-31 02:52:00,
2013-01-31 03:02:00,46.0,35.0,29.57,SSE,161,6.0,12.0,66,0.00,,,0.00,,2013-01-31 03:02:00,
2013-01-31 03:11:00,46.0,35.0,29.57,SSE,161,6.0,12.0,66,0.00,,,0.00,,2013-01-31 03:11:00,
2013-01-31 03:21:00,46.0,35.0,29.57,SSE,161,6.0,12.0,66,0.00,,,0.00,,2013-01-31 03:21:00,
2013-01-31 03:31:00,45.0,36.0,29.52,SSW,201,4.0,8.0,71,0.04,,,0.04,,2013-01-31 03:31:00,
2013-01-31 03:41:00,45.0,36.0,29.52,SSW,201,4.0,8.0,71,0.04,,,0.04,,2013-01-31 03:41:00,
2013-01-31 03:52:00,45.0,38.0,29.54,SSW,206,4.0,9.0,76,0.08,,,0.08,,2013-01-31 03:52:00,
2013-01-31 04:02:00,45.0,38.0,29.54,SSW,206,4.0,9.0,76,0.08,,,0.08,,2013-01-31 04:02:00,
2013-01-31 04:11:00,45.0,38.0,29.54,SSW,206,4.0,9.0,76,0.08,,,0.08,,2013-01-31 04:11:00,
2013-01-31 04:21:00,44.0,38.0,29.49,SSE,163,6.0,13.0,80,0.13,,,0.13,,2013-01-31 04:21:00,
2013-01-31 04:31:00,44.0,38.0,29.49,SSE,163,6.0,13.0,80,0.13,,,0.13,,2013-01-31 04:31:00,
2013-01-31 04:42:00,44.0,38.0,29.49,SSE,163,6.0,13.0,80,0.13,,,0.13,,2013-01-31 04:42:00,
2013-01-31 04:52:00,44.0,37.0,29.49,SSE,159,2.0,7.0,77,0.05,,,0.13,,2013-01-31 04:52:00,
2013-01-31 05:11:00,43.0,37.0,29.46,SSE,165,2.0,7.0,78,0.00,,,0.13,,2013-01-31 05:11:00,
2013-01-31 05:21:00,43.0,37.0,29.46,South,190,3.0,7.0,79,0.00,,,0.13,,2013-01-31 05:21:00,
2013-01-31 05:31:00,43.0,37.0,29.46,South,190,3.0,7.0,79,0.00,,,0.13,,2013-01-31 05:31:00,
2013-01-31 05:41:00,44.0,39.0,29.46,SSW,199,5.0,13.0,82,0.00,,,0.13,,2013-01-31 05:41:00,
2013-01-31 05:52:00,44.0,39.0,29.46,SSW,199,5.0,13.0,82,0.00,,,0.13,,2013-01-31 05:52:00,
2013-01-31 06:01:00,44.0,39.0,29.46,SSW,199,5.0,13.0,82,0.00,,,0.13,,2013-01-31 06:01:00,
2013-01-31 06:10:00,44.0,39.0,29.46,SSW,199,5.0,13.0,82,0.00,,,0.13,,2013-01-31 06:10:00,
2013-01-31 14:01:00,47.0,36.0,29.57,WSW,237,12.0,25.0,65,0.00,,,0.13,,2013-01-31 14:01:00,
2013-01-31 14:11:00,47.0,36.0,29.57,WSW,237,12.0,25.0,65,0.00,,,0.13,,2013-01-31 14:11:00,
2013-01-31 14:21:00,47.0,36.0,29.57,WSW,245,11.0,24.0,66,0.00,,,0.13,,2013-01-31 14:21:00,
2013-01-31 14:31:00,47.0,36.0,29.57,South,189,14.0,22.0,65,0.00,,,0.13,,2013-01-31 14:31:00,
2013-01-31 14:41:00,47.0,36.0,29.57,South,189,14.0,22.0,65,0.00,,,0.13,,2013-01-31 14:41:00,
2013-01-31 14:52:00,47.0,36.0,29.57,WSW,244,12.0,21.0,65,0.00,,,0.13,,2013-01-31 14:52:00,
2013-01-31 15:02:00,47.0,36.0,29.57,SW,230,10.0,22.0,66,0.00,,,0.13,,2013-01-31 15:02:00,
2013-01-31 15:11:00,47.0,36.0,29.57,SW,230,10.0,22.0,66,0.00,,,0.13,,2013-01-31 15:11:00,
2013-01-31 15:21:00,47.0,36.0,29.57,SW,230,10.0,22.0,66,0.00,,,0.13,,2013-01-31 15:21:00,
2013-01-31 15:31:00,48.0,37.0,29.57,WSW,237,12.0,17.0,65,0.00,,,0.13,,2013-01-31 15:31:00,
2013-01-31 15:42:00,48.0,37.0,29.57,WSW,237,12.0,17.0,65,0.00,,,0.13,,2013-01-31 15:42:00,
2013-01-31 15:52:00,47.0,36.0,29.57,WSW,242,10.0,17.0,66,0.00,,,0.13,,2013-01-31 15:52:00,
2013-01-31 16:03:00,47.0,36.0,29.57,SW,230,11.0,20.0,65,0.00,,,0.13,,2013-01-31 16:03:00,
2013-01-31 16:11:00,47.0,36.0,29.57,SW,230,11.0,20.0,65,0.00,,,0.13,,2013-01-31 16:11:00,
2013-01-31 16:21:00,47.0,36.0,29.57,SW,230,11.0,20.0,65,0.00,,,0.13,,2013-01-31 16:21:00,
2013-01-31 16:32:00,47.0,36.0,29.57,SW,224,10.0,20.0,66,0.00,,,0.13,,2013-01-31 16:32:00,
2013-01-31 16:41:00,47.0,36.0,29.57,SW,224,10.0,20.0,66,0.00,,,0.13,,2013-01-31 16:41:00,
2013-01-31 16:52:00,47.0,36.0,29.57,SW,224,10.0,20.0,66,0.00,,,0.13,,2013-01-31 16:52:00,
2013-01-31 17:02:00,47.0,36.0,29.57,SW,230,10.0,20.0,66,0.00,,,0.13,,2013-01-31 17:02:00,
2013-01-31 17:11:00,47.0,36.0,29.57,SW,230,10.0,20.0,66,0.00,,,0.13,,2013-01-31 17:11:00,
2013-01-31 17:22:00,47.0,36.0,29.57,SW,230,10.0,20.0,66,0.00,,,0.13,,2013-01-31 17:22:00,
2013-01-31 17:31:00,47.0,37.0,29.57,SW,215,12.0,20.0,68,0.00,,,0.13,,2013-01-31 17:31:00,
2013-01-31 17:42:00,47.0,37.0,29.57,SW,215,12.0,20.0,68,0.00,,,0.13,,2013-01-31 17:42:00,
2013-01-31 17:53:00,47.0,37.0,29.57,SW,225,12.0,20.0,69,0.00,,,0.13,,2013-01-31 17:53:00,
2013-01-31 18:02:00,46.0,36.0,29.60,SW,228,10.0,17.0,69,0.00,,,0.13,,2013-01-31 18:02:00,
2013-01-31 18:11:00,46.0,36.0,29.60,SW,228,10.0,17.0,69,0.00,,,0.13,,2013-01-31 18:11:00,
2013-01-31 18:21:00,46.0,36.0,29.60,SW,228,10.0,17.0,69,0.00,,,0.13,,2013-01-31 18:21:00,
2013-01-31 18:31:00,46.0,36.0,29.60,SW,228,10.0,17.0,69,0.00,,,0.13,,2013-01-31 18:31:00,
2013-01-31 18:42:00,46.0,36.0,29.60,SW,228,10.0,17.0,69,0.00,,,0.13,,2013-01-31 18:42:00,
2013-01-31 18:52:00,45.0,35.0,29.60,SW,224,10.0,17.0,69,0.00,,,0.13,,2013-01-31 18:52:00,
2013-01-31 19:02:00,45.0,35.0,29.63,SSW,207,6.0,14.0,68,0.00,,,0.13,,2013-01-31 19:02:00,
2013-01-31 19:11:00,45.0,35.0,29.63,SSW,207,6.0,14.0,68,0.00,,,0.13,,2013-01-31 19:11:00,
2013-01-31 19:21:00,44.0,34.0,29.63,SW,215,7.0,12.0,68,0.00,,,0.13,,2013-01-31 19:21:00,
2013-01-31 19:32:00,44.0,35.0,29.60,SSW,194,5.0,12.0,70,0.00,,,0.13,,2013-01-31 19:32:00,
2013-01-31 19:42:00,44.0,35.0,29.60,SSW,194,5.0,12.0,70,0.00,,,0.13,,2013-01-31 19:42:00,
2013-01-31 19:52:00,44.0,35.0,29.60,SSW,194,5.0,12.0,70,0.00,,,0.13,,2013-01-31 19:52:00,
2013-01-31 20:01:00,45.0,37.0,29.63,SW,234,8.0,17.0,74,0.00,,,0.13,,2013-01-31 20:01:00,
2013-01-31 20:11:00,45.0,37.0,29.60,SW,215,7.0,12.0,74,0.00,,,0.13,,2013-01-31 20:11:00,
2013-01-31 20:21:00,45.0,37.0,29.60,SW,215,7.0,12.0,74,0.00,,,0.13,,2013-01-31 20:21:00,
2013-01-31 20:31:00,45.0,37.0,29.60,SW,225,7.0,17.0,73,0.00,,,0.13,,2013-01-31 20:31:00,
2013-01-31 20:41:00,45.0,37.0,29.63,SW,226,6.0,13.0,72,0.00,,,0.13,,2013-01-31 20:41:00,
2013-01-31 20:52:00,45.0,37.0,29.63,SW,226,6.0,13.0,72,0.00,,,0.13,,2013-01-31 20:52:00,
2013-01-31 21:01:00,45.0,35.0,29.63,SW,228,9.0,17.0,68,0.00,,,0.13,,2013-01-31 21:01:00,
2013-01-31 21:11:00,45.0,35.0,29.63,SW,228,9.0,17.0,68,0.00,,,0.13,,2013-01-31 21:11:00,
2013-01-31 21:21:00,45.0,35.0,29.63,SW,228,9.0,17.0,68,0.00,,,0.13,,2013-01-31 21:21:00,
2013-01-31 21:31:00,45.0,35.0,29.63,SW,228,9.0,17.0,68,0.00,,,0.13,,2013-01-31 21:31:00,
2013-01-31 21:42:00,45.0,35.0,29.63,SW,228,9.0,17.0,68,0.00,,,0.13,,2013-01-31 21:42:00,
2013-01-31 22:02:00,45.0,36.0,29.63,SW,221,9.0,17.0,70,0.00,,,0.13,,2013-01-31 22:02:00,
2013-01-31 22:11:00,45.0,36.0,29.63,SW,221,9.0,17.0,70,0.00,,,0.13,,2013-01-31 22:11:00,
2013-01-31 22:22:00,45.0,36.0,29.63,SW,221,9.0,17.0,70,0.00,,,0.13,,2013-01-31 22:22:00,
2013-01-31 22:32:00,45.0,36.0,29.63,SW,221,9.0,17.0,70,0.00,,,0.13,,2013-01-31 22:32:00,
2013-01-31 22:42:00,45.0,36.0,29.63,SW,221,9.0,17.0,70,0.00,,,0.13,,2013-01-31 22:42:00,
2013-01-31 22:52:00,45.0,36.0,29.60,SW,218,8.0,14.0,70,0.00,,,0.13,,2013-01-31 22:52:00,
2013-01-31 23:02:00,45.0,36.0,29.60,SW,233,10.0,14.0,70,0.00,,,0.13,,2013-01-31 23:02:00,
2013-01-31 23:12:00,45.0,36.0,29.60,SW,217,9.0,14.0,71,0.00,,,0.13,,2013-01-31 23:12:00,
2013-01-31 23:21:00,45.0,36.0,29.60,SW,217,9.0,14.0,71,0.00,,,0.13,,2013-01-31 23:21:00,
2013-01-31 23:31:00,45.0,36.0,29.60,WSW,253,10.0,18.0,71,0.00,,,0.13,,2013-01-31 23:31:00,
2013-01-31 23:41:00,45.0,36.0,29.60,WSW,253,10.0,18.0,71,0.00,,,0.13,,2013-01-31 23:41:00,
2013-01-31 23:52:00,45.0,37.0,29.60,SW,227,9.0,17.0,72,0.00,,,0.13,,2013-01-31 23:52:00,